Theta_e
330 330 328 327 327 325 325 327 328 329 330 330 329 328 327 327 326 325 325 325 323 321 324 324 323 326 328 329 329 327 327 326 326 327 326 326 326 326 327 327 326 326
330 328 328 328 327 326 327 327 327 329 329 329 328 327 326 325 324 324 324 324 325 323 323 323 323 324 326 328 328 328 328 327 326 327 327 326 326 325 326 326 326 326
330 328 328 329 327 327 328 327 326 327 327 327 327 326 326 325 324 324 324 324 326 324 322 321 322 322 324 326 326 326 327 327 326 326 326 326 325 325 326 326 326 326
330 328 329 329 327 328 328 327 327 328 326 326 327 326 325 326 323 322 324 324 324 323 319 318 319 320 322 323 322 323 325 326 327 326 325 326 326 326 326 326 327 327
329 329 328 327 327 328 328 327 327 328 327 328 327 326 325 324 320 320 323 324 324 322 319 319 322 323 322 320 319 321 324 324 325 325 325 325 326 327 327 326 327 327
330 329 327 326 327 329 329 328 328 328 328 328 327 326 325 322 319 321 323 324 324 322 320 323 326 325 323 319 318 320 321 321 322 323 324 325 326 327 327 326 327 327
329 329 327 326 327 328 329 329 327 326 327 327 326 326 325 322 321 322 322 323 322 320 322 326 326 326 324 320 320 321 320 320 322 322 323 325 326 326 327 327 326 326
329 328 326 327 328 328 329 329 327 326 327 326 325 326 325 323 323 323 323 323 318 316 323 326 325 325 324 321 322 323 322 322 323 324 323 322 324 326 327 327 326 326
330 328 326 326 328 328 328 328 327 327 327 326 325 325 324 324 325 325 324 321 316 316 322 324 323 325 324 322 323 323 322 322 323 325 324 321 322 326 327 327 327 326
330 328 325 326 328 328 328 328 328 327 327 327 325 322 323 326 326 325 324 322 319 318 320 322 323 323 323 322 322 321 321 322 322 324 323 321 323 326 326 327 327 326
329 327 324 326 328 328 328 328 327 326 327 327 323 318 322 327 325 323 324 323 321 319 320 323 324 322 322 323 322 320 321 322 323 323 322 322 323 325 325 326 327 326
329 325 324 327 328 327 328 327 324 324 326 324 318 318 323 327 324 323 323 323 321 318 320 324 323 321 323 323 321 320 320 321 322 322 322 323 323 323 325 326 326 325
328 324 324 327 328 327 328 326 323 324 325 320 318 321 325 326 324 324 324 322 320 318 320 323 322 321 322 321 319 319 319 320 321 321 322 323 322 321 323 325 325 324
327 324 324 326 327 327 327 326 325 325 323 320 322 324 325 325 324 324 324 320 318 318 321 323 322 320 322 321 319 318 318 318 320 321 322 323 322 321 322 323 323 322
326 325 325 326 327 327 327 326 326 325 324 324 324 324 325 325 324 323 322 319 318 318 319 321 321 320 321 320 319 317 317 318 320 321 321 321 322 321 321 323 322 321
327 325 326 326 327 327 326 326 325 325 325 326 325 323 323 323 322 322 322 319 318 318 317 319 320 320 320 320 319 318 317 318 320 320 320 320 321 321 321 322 321 320
327 326 325 325 327 327 325 324 325 325 325 325 323 322 321 321 320 322 321 319 319 318 317 317 319 319 320 319 318 318 319 319 319 319 319 319 320 320 320 321 320 320
327 327 326 325 326 326 325 324 325 324 323 322 321 321 321 321 320 320 320 319 319 318 317 317 318 318 319 319 319 319 319 319 319 319 319 319 319 320 320 320 320 320
328 327 327 326 325 325 325 325 325 323 322 321 320 320 321 320 319 319 320 320 319 318 318 318 317 318 318 319 319 320 320 320 320 319 319 319 319 319 319 319 320 320
327 326 326 326 325 325 325 325 324 323 322 321 319 319 320 320 319 320 320 320 319 319 318 318 318 318 318 318 319 319 320 320 320 319 319 319 319 319 319 319 320 320
325 324 326 326 325 325 325 325 324 322 321 320 319 319 319 320 319 319 320 320 319 319 319 319 318 318 318 318 319 319 320 320 319 319 319 319 319 319 319 319 319 320
323 321 323 324 325 324 325 325 324 322 321 321 321 320 320 320 320 320 320 320 319 320 320 319 318 318 318 318 318 319 320 320 319 319 319 318 318 318 319 319 319 319
323 322 322 323 324 324 324 324 323 322 321 321 321 320 320 319 320 320 320 319 319 318 316 313 312 313 315 316 316 317 318 319 319 319 319 317 315 315 315 315 316 316
321 322 322 323 323 323 323 322 321 321 320 318 318 317 315 314 315 316 317 317 316 315 312 310 309 310 311 311 312 313 315 317 317 316 315 313 312 311 311 311 312 312
318 318 319 320 320 319 320 319 319 319 318 317 317 317 315 313 313 314 315 315 315 314 313 311 311 310 310 309 310 310 311 312 312 312 311 310 310 310 310 311 311 311
317 317 317 317 317 317 317 317 316 317 317 316 316 316 316 316 316 316 315 315 314 313 312 310 311 311 311 311 310 310 310 310 310 310 310 310 310 310 311 312 312 313
Wind_Speed
21 21 21 22 21 21 21 22 25 23 21 21 19 16 18 19 17 14 14 13 12 12 13 13 12 11 11 11 11 11 11 12 12 11 11 12 12 13 14 13 13 13
21 21 22 22 20 21 20 21 24 24 21 19 17 15 16 17 16 13 13 14 12 11 12 12 12 11 11 11 11 11 11 11 11 11 12 12 12 13 13 13 14 14
21 21 22 22 20 21 20 19 22 21 19 18 17 15 15 15 15 14 14 14 12 11 11 12 12 11 11 12 11 11 10 11 10 11 12 12 11 11 13 13 14 15
22 21 21 21 21 21 19 19 21 20 19 19 17 15 16 15 15 14 13 12 12 10 10 11 12 11 11 12 11 10 11 11 11 12 12 11 10 10 13 14 14 15
23 21 21 21 21 22 20 19 21 20 19 18 16 16 16 15 14 14 13 12 11 9 10 12 12 11 10 11 11 11 12 12 12 12 11 11 10 10 12 14 14 15
22 22 22 22 23 22 20 20 21 21 19 17 16 16 14 13 14 15 15 13 10 9 12 15 13 10 9 10 12 12 12 11 11 10 10 11 11 11 12 14 15 15
22 23 23 23 24 23 21 21 21 21 20 17 17 16 13 13 15 16 15 12 9 10 15 16 14 12 10 11 13 13 11 11 10 9 9 9 11 11 11 14 15 15
24 25 24 25 25 23 23 22 21 21 20 18 17 16 13 14 15 14 12 9 8 13 17 16 15 13 11 12 13 12 12 10 8 9 8 6 9 10 11 15 16 15
26 27 26 26 25 24 23 22 21 21 21 19 18 16 14 15 14 12 10 8 9 13 15 16 16 15 12 12 13 12 10 5 7 11 8 5 6 9 13 16 16 14
28 29 28 27 26 24 24 23 22 21 20 19 17 16 18 17 13 11 10 9 9 11 13 15 15 16 14 12 13 13 9 6 9 12 8 4 7 9 12 15 15 14
30 31 29 28 27 25 26 25 22 21 20 17 16 18 20 17 13 12 11 10 8 8 13 14 12 14 14 11 13 14 10 10 12 10 7 7 9 9 11 14 15 15
33 34 32 30 28 27 28 26 23 22 19 16 16 20 20 15 13 14 13 11 8 7 12 13 10 12 12 8 12 14 10 11 12 9 9 10 9 9 11 14 17 17
35 36 33 31 29 29 28 25 23 22 19 17 18 21 20 15 15 16 13 12 10 9 13 14 11 13 12 8 11 13 10 12 13 9 10 11 8 7 10 15 17 18
35 35 34 32 29 29 28 24 23 22 20 19 20 21 19 17 17 17 13 13 14 12 13 13 12 13 12 10 10 10 10 13 13 10 11 12 10 8 11 14 15 16
34 33 33 31 29 29 27 24 23 22 21 20 20 21 20 18 19 18 15 15 15 14 13 13 12 12 12 11 10 10 12 14 12 11 13 13 12 11 12 14 12 12
34 33 32 30 29 29 26 23 22 22 22 20 20 20 19 19 20 20 16 15 14 13 14 13 12 12 12 12 11 11 13 14 12 13 13 12 14 14 12 13 13 11
32 34 33 31 29 27 25 22 22 22 21 21 20 20 20 20 22 21 17 16 15 13 14 14 13 13 12 12 12 11 13 15 13 13 13 11 12 12 10 11 11 10
32 33 33 31 28 26 26 25 24 23 23 23 23 23 22 21 22 21 17 16 16 14 14 14 14 13 12 13 13 12 13 15 14 14 14 11 11 13 12 10 10 10
32 33 31 30 28 27 28 27 26 25 26 25 24 24 23 22 22 21 17 16 17 15 14 15 14 14 14 14 15 14 13 15 16 16 16 15 14 15 15 12 12 13
32 32 30 31 30 29 29 29 28 27 26 26 25 25 24 23 22 21 17 17 17 15 14 15 15 14 14 14 15 15 14 15 17 16 15 16 15 13 13 13 13 13
29 30 29 30 31 31 31 30 28 27 27 26 26 25 24 23 21 20 18 16 16 15 14 14 14 13 14 14 14 15 15 16 17 16 14 14 12 11 9 8 8 8
26 26 27 28 28 29 30 29 28 28 27 27 27 25 23 22 20 18 17 16 15 14 13 12 13 13 13 13 13 13 15 16 16 16 15 13 10 10 8 6 5 4
27 28 27 27 27 26 26 27 29 31 28 27 27 24 21 19 18 16 15 14 13 12 11 10 11 12 12 13 13 13 14 15 15 16 16 13 9 9 10 9 7 6
20 25 28 29 29 28 28 29 30 30 26 23 23 22 18 16 15 14 13 12 11 10 10 10 10 11 12 13 14 14 14 15 15 15 14 13 12 13 12 11 10 9
13 15 19 24 26 26 27 27 26 24 20 17 16 15 15 14 12 12 11 11 10 10 10 11 11 11 12 13 14 14 13 12 12 12 11 12 14 14 13 12 12 11
12 10 11 14 16 17 17 17 16 15 12 10 8 7 9 10 10 9 9 9 9 10 10 11 11 11 12 13 13 13 13 12 11 10 11 12 13 13 13 13 13 13
Wind_Direction
204 200 197 194 193 190 184 179 174 172 176 182 181 173 169 173 179 178 170 171 171 164 165 174 177 172 166 166 170 168 166 172 173 170 176 184 186 184 182 182 178 178
203 200 198 197 194 189 187 183 179 179 181 183 180 168 164 172 178 175 167 164 166 167 163 167 175 173 167 169 170 165 164 170 169 165 171 181 183 180 182 178 173 175
203 199 199 198 192 187 186 182 178 179 178 177 176 171 167 168 171 171 168 167 173 176 166 163 170 170 170 174 170 165 164 164 165 163 167 178 181 176 177 176 171 171
204 200 199 196 190 186 185 179 175 176 175 173 173 173 171 171 175 174 171 172 176 176 167 161 162 162 168 175 170 163 161 160 163 164 165 171 176 176 174 172 173 173
202 200 197 193 187 184 184 181 179 176 173 173 172 170 172 175 175 171 169 171 172 177 164 149 148 152 158 165 165 161 159 156 160 163 164 164 167 174 172 169 174 176
200 197 194 190 184 183 185 186 184 179 174 173 173 172 173 172 166 167 171 172 178 179 153 141 147 154 149 148 150 151 153 154 155 157 161 162 164 172 172 170 176 176
198 194 191 187 184 186 190 189 185 180 176 176 175 173 172 162 161 170 176 177 186 173 152 146 152 154 144 136 133 131 133 136 134 134 148 162 165 168 171 175 178 177
198 193 191 188 187 190 193 190 184 179 179 179 175 173 170 156 155 167 175 175 170 160 156 154 151 150 146 136 129 126 127 131 137 139 138 147 160 166 169 174 177 176
198 195 193 190 189 193 194 189 183 180 180 180 175 170 162 152 154 167 169 155 143 150 156 155 150 150 147 141 139 139 140 152 172 163 151 134 156 165 166 170 173 173
197 195 194 193 192 195 193 186 184 182 182 181 178 168 155 152 162 168 156 138 132 142 148 149 151 152 149 153 155 148 139 138 150 158 161 145 148 155 159 167 172 169
195 192 193 194 194 193 188 186 186 182 180 183 179 163 153 156 165 159 148 141 138 140 142 146 153 153 153 166 166 154 142 134 138 147 153 142 141 148 154 160 164 162
191 190 192 193 192 189 186 188 189 184 182 181 170 158 155 161 162 153 150 149 143 138 143 149 155 152 157 174 168 164 162 148 142 146 154 152 143 142 150 151 150 151
191 190 192 191 188 186 186 188 188 187 184 173 161 156 158 163 157 149 149 152 151 148 149 156 159 156 163 171 160 166 174 158 147 144 154 157 143 134 152 155 152 153
192 190 191 190 186 183 184 183 184 185 180 170 164 161 162 162 155 149 151 158 162 161 158 161 164 161 165 164 155 159 163 157 151 141 142 148 140 130 144 152 154 162
191 188 187 188 185 181 179 178 178 177 171 168 168 168 166 164 157 154 159 164 166 165 164 166 167 167 167 163 158 156 155 157 156 147 144 146 142 134 142 152 153 157
187 185 184 185 182 178 178 176 171 169 168 171 173 171 167 164 161 162 165 168 169 167 169 171 171 171 170 167 164 160 160 161 156 152 153 149 148 146 147 155 158 156
184 183 184 184 179 174 176 173 166 166 171 172 167 163 163 163 165 168 169 171 174 171 169 172 173 173 171 168 166 161 162 162 156 158 161 151 152 160 153 152 163 168
180 180 182 181 176 172 173 171 165 164 169 168 161 162 167 168 168 171 171 173 179 177 170 171 173 173 171 168 164 160 163 164 160 164 167 157 156 168 166 160 164 173
178 179 179 175 175 174 171 169 165 165 167 166 163 167 170 170 171 175 173 173 179 179 173 172 172 172 171 169 166 166 169 169 165 164 165 162 164 171 176 175 171 176
178 177 173 170 174 176 173 169 167 167 170 170 170 172 173 172 174 177 173 171 176 180 178 176 176 175 174 173 171 172 174 172 170 166 158 155 159 165 171 176 175 179
178 176 172 171 173 175 173 171 169 168 169 171 172 172 172 172 174 176 174 171 172 176 177 178 182 184 181 179 177 175 175 176 178 178 169 161 163 163 157 162 172 177
179 181 181 180 178 176 173 171 171 171 171 172 173 170 167 168 168 168 169 169 168 171 174 177 184 190 191 190 188 185 183 181 181 183 181 173 174 180 179 180 189 199
174 182 186 187 185 181 175 170 170 170 168 167 167 164 162 164 166 166 166 167 170 172 175 176 179 185 192 197 202 205 204 200 199 201 199 193 200 212 211 213 221 232
148 162 171 177 178 175 173 170 167 166 164 158 155 156 155 154 159 165 168 174 181 186 189 190 186 185 191 199 207 215 220 220 222 228 227 222 231 240 241 243 248 252
101 121 139 151 154 153 156 158 156 156 154 145 141 147 152 154 161 172 179 184 192 196 194 191 185 182 186 195 204 209 213 215 220 231 236 233 237 247 254 259 263 266
94 88 95 109 115 119 128 133 132 132 133 135 142 146 150 160 174 184 185 184 187 191 192 189 187 185 185 192 200 203 204 206 210 218 227 234 242 253 258 260 264 268